User: anonymous
Location: Bush Observatory
(40.2653°N, 94.3194°W)
Time: 14:57:20
(UTC-05:00)
Language:

Cosmos 1933 Rocket - Orbit

View from above orbital plane
View from above orbital plane
View from above satellite
View from above satellite

Ground track
Ground track

The orbit data is extracted from the following two-line orbital elements,

1 18959U 88020B   14293.51141096  .00000677  00000-0  80415-4 0  3868
2 18959 082.5359 097.6400 0018537 098.4563 317.0565 14.82888494436704
Epoch (UTC): 20 October 2014 12:16:25
Eccentricity: 0.0018537
inclination: 82.5359°
perigee height: 607 km
apogee height: 633 km
right ascension of ascending node: 97.6400°
argument of perigee: 98.4563°
revolutions per day: 14.82888494
mean anomaly at epoch: 317.0565°
orbit number at epoch: 43670

The dashed part of the orbit path shows where the satellite is in the earth's shadow,  

DLR